Location: Unspecified
(33.9360°N, 83.4200°W)
Time: 16:41:38
(UTC-04:00)

Daily predictions for brighter satellites

Satellite Brightness Start Highest point End
(mag) Time Altitude Azimuth Time Altitude Azimuth Time Altitude Azimuth
ATLAS 2A CENTAUR R/B 4.2 20:46:30 10° WSW 20:53:13 61° SSE 21:20:37 10° E
OAO 3 Rocket 3.2 21:12:48 10° W 21:17:26 68° SSW 21:22:06 10° ESE
Cosmos 1707 2.8 21:14:30 10° S 21:18:23 89° ENE 21:22:18 10° N
Cosmos 1954 Rocket 4.5 21:14:04 10° SSE 21:18:51 38° E 21:23:38 10° NE
Cosmos 2333 Rocket 2.6 21:17:28 10° N 21:22:56 49° ENE 21:28:22 10° SE
Milstar 3 Cent rocket 3.5 21:21:50 10° WSW 21:28:12 61° S 21:41:13 10° ESE
Cosmos 2219 Rocket 2.3 21:23:25 10° NNW 21:29:05 69° ENE 21:34:41 10° SSE
Cosmos 1939 Rocket 3.1 21:30:20 10° SSE 21:34:10 53° ENE 21:38:05 10° N
Helios 1A 3.1 21:33:00 10° SSE 21:37:03 57° ENE 21:41:07 10° N
USA 234 3.2 21:37:24 10° NE 21:43:56 68° SE 21:50:24 10° SSW
ERS-1 Rocket 3.9 21:41:39 13° SE 21:45:31 33° ENE 21:49:59 10° N
Cosmos 2082 3.7 21:41:43 10° SSW 21:47:19 85° ESE 21:52:57 10° NNE
Helios 1B rocket 2.5 21:43:59 10° N 21:48:08 84° WNW 21:52:16 10° SSW
USA 186 3.5 21:48:29 10° SSW 21:50:31 21° W 21:52:27 10° NW
SAR-Lupe-4 3.7 21:48:27 15° SSE 21:51:19 58° ENE 21:54:52 10° N
Chunghua 1 4.5 21:47:37 10° W 21:51:24 88° S 21:54:16 17° ESE
Cosmos 1340 Rocket 3.1 21:49:56 10° SSE 21:53:43 46° E 21:57:35 10° NNE
SPOT 5 4.4 21:51:11 14° ESE 21:53:45 20° ENE 21:57:17 10° NNE
Tiangong 1 1.7 21:51:43 10° WSW 21:54:27 50° NNW 21:57:10 10° NE
SL-8 R/B 4.3 21:50:17 10° NW 21:54:55 49° NNE 21:58:31 16° ESE
Cosmos 2297 Rocket 2.2 21:50:19 10° SSW 21:55:58 86° WNW 22:01:39 10° NNE
Cosmos 676 Rocket 4.3 21:50:54 10° SSW 21:56:07 70° WNW 22:01:20 10° NNE
Cosmos-2242 4.1 21:52:37 10° NNW 21:56:40 44° W 22:00:44 10° SSW
SEDSat Delta rocket 3.2 21:54:04 10° W 21:58:16 48° SSW 22:00:39 21° SE
Okean 3 Rocket 4.2 21:57:05 16° SSE 22:00:13 38° E 22:04:22 10° NNE
Lacrosse 4 Rocket 2.8 21:58:10 10° SW 22:02:09 43° WNW 22:06:15 10° N
DELTA 2 R/B (1) 3.9 21:57:36 10° WNW 22:03:05 54° SSW 22:06:45 20° SE
ATLAS 2AS CENTAUR R/B 4.2 21:56:50 10° NW 22:03:42 35° WSW 22:10:03 10° S
Cosmos 1184 Rocket 2.7 22:03:57 12° S 22:07:00 83° E 22:10:22 10° N
NOSS 3-4 (A) 4.2 22:00:08 10° NNW 22:07:07 54° NE 22:12:20 20° SE
NOSS 3-4 (C) 4.2 22:00:14 10° NNW 22:07:12 54° NE 22:12:25 20° SE
Cosmos 1076 Rocket 4.4 22:05:21 22° SE 22:07:12 31° E 22:11:05 10° NNE
SAR-Lupe-1 4.0 22:08:09 21° SSE 22:10:28 89° WSW 22:14:04 10° NNW
Atlas Centaur 2 1.2 22:08:01 10° WSW 22:11:27 48° S 22:12:48 31° SE
Spot 1 4.5 22:10:03 13° S 22:13:36 55° WSW 22:17:39 10° NNW
CZ-3B R/B 3.1 22:11:43 10° SW 22:14:08 76° SE 22:20:44 10° NE
Cosmos 1980 3.8 22:11:30 10° NNW 22:17:11 76° WSW 22:21:17 19° SSE
Aureole 2 Rocket 3.1 22:13:33 10° NNW 22:17:34 60° WSW 22:19:57 21° S
Resurs 01 Rocket 4.3 22:15:12 10° SW 22:17:38 15° W 22:20:05 10° WNW
CZ-4B DEB 3.8 22:18:21 18° SSW 22:20:12 37° W 22:22:59 10° NNW
Cosmos 2221 2.9 22:16:05 10° N 22:20:20 47° E 22:22:02 31° SE
MetOp-B 4.3 22:17:49 24° SE 22:20:55 57° ENE 22:26:10 10° N
Envisat 4.4 22:17:32 10° SSW 22:22:07 34° W 22:26:44 10° NNW
USA 245 3.9 22:22:16 27° ENE 22:22:28 27° ENE 22:25:26 10° N
Skynet4D Del rocket 4.4 22:17:02 10° WSW 22:22:50 45° S 22:26:19 26° SE
Cosmos 1242 Rocket 3.8 22:20:10 10° NNE 22:23:21 26° ENE 22:23:41 26° E
ATLAS 5 CENTAUR R/B 1.6 22:19:41 10° SSW 22:24:14 82° ESE 22:29:07 10° NNE
Cosmos 1356 Rocket 3.7 22:23:49 33° SE 22:25:15 47° E 22:29:21 10° NNE
USA 32 4.2 22:20:19 10° S 22:25:31 72° W 22:30:47 10° N
Cosmos 1766 Rocket 4.3 22:25:02 31° ESE 22:25:47 33° E 22:29:40 10° NNE
Cosmos 2237 Rocket 2.4 22:22:34 10° NNW 22:28:08 66° WSW 22:31:49 22° S
Cosmos 2061 Rocket 4.5 22:22:18 10° N 22:28:22 45° E 22:31:19 28° SE
Cosmos 2100 Rocket 4.1 22:27:34 10° N 22:33:48 60° E 22:37:01 29° SSE
Cosmos 1867 3.5 22:31:16 10° SSW 22:36:39 70° ESE 22:42:04 10° NNE
Cosmos 1000 Rocket 4.5 22:34:38 22° S 22:38:55 71° E 22:45:12 10° N
Cosmos 2227 Rocket 4.3 22:34:25 10° WSW 22:39:11 28° WNW 22:44:00 10° N
Cosmos 1459 Rocket 4.1 22:33:21 10° N 22:39:36 62° E 22:42:28 32° SSE
YAOGAN 6 4.3 22:37:40 15° SSW 22:39:59 28° W 22:43:10 10° NW
Cosmos 1726 3.9 22:38:07 10° NNE 22:40:16 19° ENE 22:40:16 19° ENE
Cosmos 1908 3.2 22:39:30 10° N 22:43:22 64° E 22:43:51 57° SE
H-2A R/B 4.1 22:43:40 15° ENE 22:43:53 15° ENE 22:46:22 10° NNE
Cosmos 1674 2.8 22:46:51 40° SSW 22:48:04 72° W 22:51:51 10° N
Terra 3.1 22:48:44 24° E 22:49:19 24° ENE 22:53:07 10° NNE
SL-16 R/B 2.1 22:44:26 10° NNW 22:50:07 76° ENE 22:52:08 41° SE
Cosmos 2173 Rocket 3.9 22:44:09 10° N 22:50:18 75° E 22:53:02 35° SSE
KORONAS-FOTON 3.6 22:51:34 71° SE 22:51:52 77° E 22:55:40 10° N
ARGOS 3.2 22:57:54 37° S 23:00:07 75° WSW 23:05:33 10° NNW
RESURS DK-1 4.3 22:59:00 10° NNE 23:01:54 18° ENE 23:01:57 18° ENE
Cosmos 1802 Rocket 3.8 22:57:00 10° N 23:03:10 82° E 23:05:24 42° SSE
H-2A R/B 2.0 23:03:07 50° SSE 23:04:29 77° ENE 23:09:51 10° N
Cosmos 2333 Rocket 4.3 23:02:58 10° WNW 23:06:43 18° W 23:10:27 10° SW
Cosmos 1725 Rocket 4.2 23:03:48 10° N 23:09:53 52° E 23:11:11 45° ESE
EO 1 Delta rocket 3.8 23:12:23 61° SSE 23:13:16 87° E 23:17:54 10° N
SL-08 R/B 4.5 23:08:11 10° N 23:14:31 70° E 23:16:11 50° SSE
Cosmos 468 Rocket 4.3 23:12:06 10° N 23:17:02 47° ENE 23:17:22 46° E
Cosmos 1818 3.4 23:11:54 10° NNW 23:17:22 84° ENE 23:18:13 64° SE
Cosmos 2227 4.2 23:15:28 31° SSW 23:18:18 82° WNW 23:24:03 10° NNE
IGS 5A 4.2 23:19:32 41° NE 23:19:32 41° NE 23:22:56 10° N
OAO 1 Rocket 4.3 23:16:31 10° WSW 23:21:55 87° SSE 23:23:06 55° E
SL-19 R/B 4.2 23:18:25 10° NNE 23:23:41 60° ESE 23:23:54 60° ESE
SL-14 R/B 3.8 23:27:46 57° N 23:27:46 57° N 23:31:00 10° N
Cosmos 1328 4.3 23:28:45 58° N 23:28:45 58° N 23:32:03 10° N
deb Chang Zheng 4 4.3 23:24:04 10° NNE 23:27:15 42° NE 23:27:15 42° NE
Tiangong 1 3.9 23:28:41 10° NW 23:30:19 15° NNW 23:30:19 15° NNW
SPOT 5 3.9 23:30:26 31° SW 23:31:29 35° W 23:35:57 10° NNW
DMSP B5D2-2 4.3 23:28:19 10° N 23:33:30 65° WNW 23:34:52 47° SW
Cosmos 1864 Rocket 4.4 23:28:15 10° N 23:34:38 84° E 23:35:50 61° SSE
Cosmos 220 Rocket 4.4 23:38:26 59° NNE 23:38:26 59° NNE 23:42:03 10° NNE
Cosmos 2016 Rocket 4.3 23:34:20 10° NNW 23:40:28 58° W 23:42:13 43° SW
Lacrosse 5 3.1 23:37:19 10° NNW 23:41:49 31° NE 23:42:29 30° ENE
Cosmos 1500 Rocket 4.1 23:49:23 59° NNW 23:49:23 59° NNW 23:53:05 10° N
Cosmos 1300 4.2 23:51:58 10° NNW 23:54:28 34° NW 23:54:28 34° NW
